Tracking 17143 objects as of 29-June-2015
HD Live streaming from Space Station

SL-8 R/B

Track SL-8 R/B now!
10-day predictions
SL-8 R/B is classified as:


NORAD ID: 6271
Int'l Code: 1972-087J
Perigee: 1,473.6 km
Apogee: 1,600.3 km
Inclination: 74.0 °
Period: 116.6 minutes
Semi major axis: 7907 km
RCS: 6.2723 m2 (large)
Launch date: November 1, 1972
Source: Commonwealth of Independent States (former USSR) (CIS)

Note: This is a ROCKET BODY
Your satellite tracking list
Your tracking list is empty





NASA's NSSDC Master Catalog

Two Line Element Set (TLE):
1 06271U 72087J   15179.23673387  .00000048  00000-0  49979-3 0  9995
2 06271 074.0394 143.7131 0080081 189.4871 276.5689 12.34547826922503

Source of the keplerian elements: AFSPC

N2YO: 287